Terminal Aerodrome Forecast
Issued by NWS

Home | Current Version | Previous Version | Text Only | Print | Product List | Glossary On
Versions: 1 2 3 4 5 6 7 8 9 10 11 12 13 14 15
000
FTUS42 TJSJ 202300
TAFJMZ
TAF
TJMZ 202338Z 2100/2124 06006KT P6SM VCSH SCT025
     FM211400 25010KT P6SM SCT040
     FM211700 28010KT P6SM VCTS BKN030CB
     FM212200 06006KT P6SM SCT025 SCT040
      AMD NOT SKED TIL 211100=

USA.gov is the U.S. government's official web portal to all federal, state and local government web resources and services.